Regional Weather Roundup
Issued by NWS

Home | Current Version | Previous Version | Graphics & Text | Print | Product List | Glossary On
Versions: 1 2 3 4 5 6 7 8 9 10 11 12 13 14 15 16 17 18 19 20 21 22 23 24 25 26 27 28 29 30 31 32 33 34 35 36 37 38 39 40 41 42 43 44 45 46 47 48 49 50
474
ASUS45 KBOU 221207
RWRCO

WEATHER ROUNDUP FOR COLORADO
NATIONAL WEATHER SERVICE DENVER/BOULDER CO
600 AM MDT FRI SEP 22 2017

NOTE: "FAIR" INDICATES FEW OR NO CLOUDS BELOW 12000 FEET WITH NO
SIGNIFICANT WEATHER AND/OR OBSTRUCTIONS TO VISIBILITY.

COZ001>005-013-030-031-221300-
...NORTHWEST COLORADO...

CITY           SKY/WX    TMP DP  RH WIND       PRES   REMARKS
CRAIG          FAIR      62  24  23 S14G26    29.82R
HAYDEN         FAIR      54  27  35 SW13G18   29.86R
MEEKER         FAIR      60  28  29 S9G21     29.83R
RABBIT EARS PA FAIR      43  25  49 SW17G30   30.07S
STEAMBOAT SPGS FAIR      43  28  55 CALM      29.88R
WALDEN         FAIR      37  23  56 SE9       29.96R
$$

COZ006>008-011-221300-
...WEST CENTRAL VALLEYS...

CITY           SKY/WX    TMP DP  RH WIND       PRES   REMARKS
GRAND JUNCTION FAIR      67  34  29 S12       29.77S
MONTROSE       MOCLDY    65  38  36 SW21G36   29.85S
EAGLE          FAIR      46  25  43 E8        29.90S
RIFLE          MOCLDY    68  34  28 S18G28    29.81S
DELTA          MOCLDY    69  34  28 S17G25    29.84R
NUCLA          MOCLDY    63  32  31 S20G29    29.90R
$$

COZ017>023-064>068-221300-
...SOUTHWEST COLORADO...

CITY           SKY/WX    TMP DP  RH WIND       PRES   REMARKS
DURANGO        CLOUDY    54  37  52 E7        29.99S
CORTEZ         CLOUDY    64  37  36 S9        29.91R
PAGOSA SPRINGS FAIR      49  34  56 CALM      30.07R THUNDER
TELLURIDE      CLOUDY    54  33  44 S18G24    30.05S
WOLF CREEK PAS CLOUDY    36  32  87 S24G36    30.27S
$$

COZ009-010-012-014-032>034-037-058>063-221300-
...CENTRAL COLORADO...

CITY           SKY/WX    TMP DP  RH WIND       PRES   REMARKS
ASPEN          MOCLDY    48  30  49 SE5       29.94S
BUENA VISTA    FAIR      53  28  38 SE6       30.00R
COPPER MTN     FAIR      45  18  33 S21G37    30.19S
BERTHOUD PASS  FAIR      36  28  75 SW22G32   30.19S
COTTONWOOD PAS FAIR      55  28  35 W3        30.11R
GUNNISON       FAIR      36  26  67 CALM      29.98F
KREMMLING      FAIR      34  27  75 S3        29.95R
LEADVILLE      FAIR      48  19  31 SE8G21    30.07S
MONARCH PASS   FAIR      37  30  75 SW35G40   30.31S
SALIDA         FAIR      57  32  38 S6        30.07R
SUNLIGHT       MOCLDY    41  27  56 SW14G28   30.11S
WILKERSON PASS FAIR      41  27  56 SW20G32   30.15F
$$

COZ069>075-221300-
...SAN LUIS VALLEY/SANGRE DE CRISTO MOUNTAINS...

CITY           SKY/WX    TMP DP  RH WIND       PRES   REMARKS
ALAMOSA        FAIR      50  35  56 S15       30.02R
DEL NORTE      FAIR      48  37  65 N3        30.05S
LA VETA PASS   FAIR      45  32  61 S28G45    30.21S
SAGUACHE       FAIR      43  30  61 CALM      30.04S
$$

COZ035-036-038>040-221300-
...NORTHERN COLORADO FRONT RANGE...

CITY           SKY/WX    TMP DP  RH WIND       PRES   REMARKS
DENVER INTL AP FAIR      51  33  50 N10       29.78R
DMNS CITY PARK   N/A     53  35  50 N7G16     29.80R
AURORA         PTCLDY    60  31  32 W8        29.80R
FRONT RANGE AP FAIR      63  28  27 S9        29.78R
ERIE MUNI ARPT FAIR      47  34  62 CALM      29.84R
BOULDER MUN AP FAIR      52  36  54 CALM      29.78S
CENTENNIAL     FAIR      65  28  24 S12       29.80R
BROOMFIELD     FAIR      54  36  50 N14       29.80S
FORT COLLINS   FAIR      48  37  65 E3        29.78R
LONGMONT       FAIR      48  37  63 S3        29.81R
$$

COZ041-046-047-076>085-087-088-221300-
...PIKES PEAK/PALMER DIVIDE AND SOUTHERN FOOTHILLS...

CITY           SKY/WX    TMP DP  RH WIND       PRES   REMARKS
COLO. SPRINGS  FAIR      70  31  23 SW20G35   29.86R
A. F. ACADEMY  FAIR      60  26  27 E6        29.85R
SCHRIEVER AFB  FAIR      65  29  25 S15       29.88R
CHEYENNE MTN   FAIR      66  29  24 W12G28    29.81R
ELLICOTT         N/A    N/A N/A N/A S9        29.86R
FALCON         FAIR      58  28  31 SW12      29.90R
FORT CARSON    FAIR      67  32  26 S17       29.82R
LIMON          FAIR      63  29  27 SW13      29.81R
MONUMENT HILL  FAIR      54  28  37 W5        29.91S
CANON CITY     CLEAR     68  36  30 W12       29.82R
WALSENBURG     NOT AVBL
TRINIDAD       FAIR      70  36  28 SW9G21    29.89R
$$

COZ042>045-048>051-090-091-221300-
...NORTHEAST COLORADO...

CITY           SKY/WX    TMP DP  RH WIND       PRES   REMARKS
GREELEY ARPT   FAIR      48  38  68 NW3       29.77R
AKRON          FAIR      50  31  48 N8        29.75R
BURLINGTON     FAIR      57  43  59 S13       29.78R
WRAY           FAIR      61  36  39 S8        29.71S
YUMA           FAIR      52  32  46 CALM      29.74R
STERLING       FAIR      45  37  76 NW6       29.73R
HOLYOKE        FAIR      52  37  58 W3        29.73R
FORT MORGAN    FAIR      47  35  62 NE9       29.75R
$$

COZ086-089-092>099-221300-
...SOUTHEAST COLORADO...

CITY           SKY/WX    TMP DP  RH WIND       PRES   REMARKS
PUEBLO         FAIR      63  32  31 VRB5      29.77R
LA JUNTA       FAIR      70  37  29 SW10      29.78R
LAMAR          FAIR      69  43  38 S20       29.75S
SPRINGFIELD      N/A     64  49  57 S23       29.87R
$$




USA.gov is the U.S. government's official web portal to all federal, state and local government web resources and services.